Weather History for Gwinn, MI

Change the Weather History Date:

Monday, February 17, 2014

  Actual Average (KESC) Record (KESC)
Temperature  
Mean Temperature 4 °F -  
Max Temperature 17 °F 28 °F 50 °F (1971)
Min Temperature -8 °F 10 °F -20 °F (2000)
Degree Days  
Heating Degree Days 60    
Moisture  
Dew Point 4 °F    
Average Humidity 87    
Maximum Humidity 93    
Minimum Humidity 79    
Precipitation  
Precipitation 0.00 in - - ()
Sea Level Pressure  
Sea Level Pressure 30.00 in    
Wind  
Wind Speed 6 mph (South)    
Max Wind Speed 25 mph    
Max Gust Speed 32 mph    
Visibility 6 miles    
Events Snow    
Averages and records for this station are not official NWS values.
T = Trace of Precipitation, MM = Missing Value Source: NWS Daily Summary

Daily Weather History Graph

Daily Weather History Graph

Search for Another Location

Airport:

Trip Planner

Search our weather history database for the weather conditions in past years. The results will help you decide how hot, cold, wet, or windy it might be!

Date:

Astronomy

Feb. 17, 2014 Rise Set
Actual Time 7:49 AM EST 6:18 PM EST
Civil Twilight 7:18 AM EST 6:49 PM EST
Nautical Twilight 6:43 AM EST 7:24 PM EST
Astronomical Twilight 6:08 AM EST 7:59 PM EST
Moon 9:25 PM EST (2/17) 8:38 AM EST (2/17)
Length of Visible Light 11h 30m
Length of Day
10h 28m
Waning Gibbous, 93% of the Moon is Illuminated
Feb 17
Waning Gibbous
Feb 22
Last Quarter
Mar 1
New
Mar 8
First Quarter
Mar 16
Full

Hourly Weather History & Observations

Time (EST) Temp. Windchill Dew Point Humidity Pressure Visibility Wind Dir Wind Speed Gust Speed Precip Events Conditions
12:16 AM -7.1 °F - -11.9 °F 79% 30.22 in 10.0 mi Calm Calm - N/A   Clear
12:36 AM -7.6 °F -16.5 °F -12.3 °F 80% 30.22 in 10.0 mi South 3.5 mph - N/A   Clear
12:57 AM -7.2 °F - -11.9 °F 80% 30.22 in 10.0 mi Calm Calm - N/A   Clear
1:16 AM -8.7 °F -17.8 °F -13.5 °F 79% 30.22 in 10.0 mi SSW 3.5 mph - N/A   Clear
1:37 AM -5.4 °F -16.2 °F -9.9 °F 81% 30.22 in 10.0 mi SSW 4.6 mph - N/A   Clear
1:57 AM -4.9 °F -15.6 °F -9.0 °F 82% 30.22 in 10.0 mi South 4.6 mph - N/A   Clear
2:16 AM -4.5 °F -15.2 °F -8.7 °F 82% 30.21 in 10.0 mi South 4.6 mph - N/A   Clear
2:37 AM -2.9 °F -16.5 °F -6.7 °F 84% 30.21 in 10.0 mi SSW 6.9 mph - N/A   Clear
2:56 AM -1.7 °F -14.9 °F -5.4 °F 84% 30.22 in 10.0 mi SSW 6.9 mph - N/A   Clear
3:16 AM -1.1 °F -14.3 °F -4.9 °F 84% 30.21 in 10.0 mi South 6.9 mph - N/A   Clear
3:36 AM -1.7 °F -13.5 °F -5.6 °F 83% 30.19 in 7.0 mi South 5.8 mph - N/A   Clear
3:56 AM -2.6 °F -12.9 °F -6.5 °F 83% 30.18 in 10.0 mi SSW 4.6 mph - N/A   Clear
4:17 AM -1.1 °F -12.9 °F -4.9 °F 84% 30.18 in 10.0 mi SSW 5.8 mph - N/A   Clear
4:36 AM -0.4 °F -10.4 °F -4.0 °F 85% 30.17 in 10.0 mi SSW 4.6 mph - N/A   Clear
4:57 AM 0.7 °F -12.1 °F -2.9 °F 85% 30.17 in 10.0 mi South 6.9 mph - N/A   Clear
5:16 AM 2.1 °F -7.4 °F -1.5 °F 85% 30.16 in 10.0 mi South 4.6 mph - N/A   Mostly Cloudy
5:37 AM 4.6 °F -7.4 °F 1.8 °F 88% 30.15 in 10.0 mi South 6.9 mph - N/A   Overcast
5:56 AM 6.8 °F -7.8 °F 3.9 °F 88% 30.14 in 10.0 mi South 10.4 mph - N/A   Overcast
6:50 AM 8.6 °F -5.5 °F 6.8 °F 92% 30.10 in 10.0 mi SSE 10.4 mph - N/A   Overcast
7:55 AM 12.2 °F -2.5 °F 10.4 °F 92% 30.05 in 7.0 mi SSE 12.7 mph - N/A   Overcast
8:55 AM 14.0 °F -0.8 °F 12.2 °F 93% 30.02 in 3.0 mi SSE 13.8 mph - N/A   Overcast
9:50 AM 15.8 °F 0.9 °F 14.0 °F 93% 29.99 in 3.0 mi SSE 15.0 mph 20.7 mph N/A   Overcast
10:45 AM 15.8 °F -1.5 °F 14.0 °F 93% 29.97 in 1.8 mi SSE 20.7 mph 28.8 mph N/A   Overcast
11:50 AM 17.6 °F -0.6 °F 15.8 °F 93% 29.95 in 1.5 mi South 25.3 mph 32.2 mph N/A   Overcast
12:50 PM 17.6 °F 1.7 °F 15.8 °F 93% 29.91 in 3.0 mi South 18.4 mph 29.9 mph N/A   Overcast
2:50 PM 17.6 °F 0.5 °F 14.0 °F 86% 29.84 in 1.8 mi South 21.9 mph 26.5 mph N/A Snow Light Snow
3:50 PM 15.8 °F 0.9 °F 12.2 °F 86% 29.82 in 1.0 mi SSE 15.0 mph 24.2 mph N/A Snow Light Snow
4:55 PM 15.8 °F 3.4 °F 10.4 °F 79% 29.80 in 2.0 mi SSE 10.4 mph 21.9 mph N/A Snow Light Snow
5:50 PM 15.8 °F 2.1 °F 12.2 °F 86% 29.78 in 2.0 mi SSE 12.7 mph - N/A Snow Light Snow
6:50 PM 15.8 °F 2.7 °F 12.2 °F 86% 29.77 in 2.0 mi SSE 11.5 mph - N/A Snow Light Snow
7:55 PM 15.8 °F 3.4 °F 12.2 °F 86% 29.75 in 1.5 mi South 10.4 mph - N/A Snow Light Snow
8:55 PM 15.8 °F 4.2 °F 14.0 °F 93% 29.73 in 1.2 mi South 9.2 mph - N/A Snow Light Snow
9:50 PM 15.8 °F 7.2 °F 14.0 °F 93% 29.73 in 4.0 mi South 5.8 mph - N/A Snow Light Snow
10:17 PM 15.8 °F 10.2 °F 13.5 °F 90% 29.73 in 1.8 mi SSW 3.5 mph - N/A Snow Light Snow
10:36 PM 15.8 °F 10.2 °F 13.5 °F 90% 29.73 in 2.5 mi SSW 3.5 mph - N/A Snow Light Snow
10:56 PM 16.0 °F 7.4 °F 13.6 °F 90% 29.72 in 4.0 mi South 5.8 mph - N/A Snow Light Snow
11:17 PM 16.0 °F 6.3 °F 13.5 °F 90% 29.72 in 4.0 mi SSW 6.9 mph - N/A Snow Light Snow
11:36 PM 15.8 °F 7.2 °F 13.6 °F 91% 29.72 in 5.0 mi SSW 5.8 mph - N/A Snow Light Snow
11:57 PM 15.8 °F 8.6 °F 13.5 °F 90% 29.72 in 2.5 mi SSW 4.6 mph - N/A Snow Light Snow